Location: Sungai Igah
(2.7333°N, 114.2500°E)
Time: 03:13:30
(UTC+00:00)

Centaur AC-112 - Pass Details

Date: 14 June 2021
Orbit: 263 x 20403 km, 26.6° (Epoch: 02 August)

Event Time Altitude Azimuth Distance (km) Brightness Sun altitude
Exits shadow 20:20:20 69° 331° (NNW) 815 3.0 -26.8°
Maximum altitude 20:20:23 70° 337° (NNW) 822 3.0 -26.8°
Drops below altitude 10° 20:31:49 10° 59° (ENE) 5,668 8.5 -24.2°
Sets 20:41:53 0° 61° (ENE) 9,516 10.1 -22.0°
